Location: ????????
(55.7667°N, 37.4833°E)
Time: 07:32:48
(UTC+00:00)

Cosmos 2219 Rocket - Pass Details

Date: 19 May 2025
Orbit: 828 x 844 km, 71.0° (Epoch: 23 June)

Event Time Altitude Azimuth Distance (km) Brightness Sun altitude
Rises 22:21:14 0° 323° (NW) 3,400 6.0 -13.4°
Reaches altitude 10° 22:23:49 10° 316° (NW) 2,459 5.1 -13.3°
Maximum altitude 22:28:59 39° 250° (WSW) 1,244 2.8 -13.1°
Enters shadow 22:32:33 18° 192° (SSW) 1,918 3.4 -13.0°
